Regional Weather Roundup
Issued by NWS

Home | Current Version | Previous Version | Text Only | Print | Product List | Glossary Off
Versions: 1 2 3 4 5 6 7 8 9 10 11 12 13 14 15 16 17 18 19 20 21 22 23 24 25 26 27 28 29 30 31 32 33 34 35 36 37 38 39 40 41 42 43 44 45 46 47 48 49 50

730
ASUS45 KCYS 282010
RWRWY

WYOMING REGIONAL WEATHER ROUNDUP
NATIONAL WEATHER SERVICE CHEYENNE WY
200 PM MDT THU JUL 28 2016

NOTE:  "FAIR" INDICATES FEW OR NO CLOUDS BELOW 12,000 FEET
WITH NO SIGNIFICANT WEATHER AND/OR OBSTRUCTIONS TO VISIBILITY.

WYZ001-282100-
YELLOWSTONE NATIONAL PARK

CITY           SKY/WX    TMP DP  RH WIND       PRES   REMARKS
LK YELLOWSTONE   N/A     71  43  36 VRB5      30.38F
W YELLOWSTONE  NOT AVBL

$$
WYZ002>013-054>058-071-098>099-282100-
NORTHERN WYOMING

CITY           SKY/WX    TMP DP  RH WIND       PRES   REMARKS
JACKSON        SUNNY     82  28  14 W9G21     30.25F
CODY           FAIR      75  50  41 CALM      30.23F
GREYBULL       FAIR      82  47  29 VRB6      30.13F
WORLAND        FAIR      81  50  33 MISG      30.16F
SHERIDAN       FAIR      78  54  43 VRB3      30.18F
BUFFALO        FAIR      76  50  40 NW8       30.24F
GILLETTE       FAIR      72  57  59 N12       30.20F
HULETT         MOCLDY    66  59  77 SW7       30.21F
NEWCASTLE      FAIR      64  54  68 N6        30.23F

$$
WYZ014>020-022>026-101>103-282100-
CENTRAL WYOMING

CITY           SKY/WX    TMP DP  RH WIND       PRES   REMARKS
BIG PINEY      FAIR      87  24  10 NW17G28   30.28F
PINEDALE       FAIR      82  25  12 NW14G25   30.29S
DUBOIS         FAIR      81  34  18 E3        30.27F
LANDER         FAIR      82  49  31 NE6       30.19F
RIVERTON       FAIR      78  47  33 CALM      30.21F
CASPER         FAIR      79  45  29 N8        30.21F
DOUGLAS          N/A    N/A N/A N/A MISG      30.21F

$$
WYZ021-027>030-104>119-282100-
SOUTHERN WYOMING

CITY           SKY/WX    TMP DP  RH WIND       PRES   REMARKS
EVANSTON       FAIR      90  25   9 W15G25    30.30F
KEMMERER         N/A    N/A N/A N/A W23G35    30.32F
FORT BRIDGER   FAIR      90  26  10 W9G22     30.31F
ROCK SPRINGS   FAIR      84  35  17 MISG      30.25F
DIXON          FAIR      88  31  13 SW8G17    30.27F
RAWLINS        FAIR      79  44  28 CALM      30.27F
SARATOGA       FAIR      81  45  28 N12G18    30.29F
LARAMIE        FAIR      75  48  38 VRB3      30.29F
CHEYENNE       FAIR      68  54  60 E12G18    30.26F
TORRINGTON     FAIR      75  52  44 VRB6      30.17F
PINE BLUFFS    FAIR      72  54  53 E10G16    30.24S

$$




USA.gov is the U.S. government's official web portal to all federal, state and local government web resources and services.